Starlink 30496

operational
NORAD ID: 57919 Int'l Des: 2023-147 Owner: SPXS Country: US Constellation: starlink
LEOCIRCULAR

Über Starlink 30496

Beschreibung wird geladen...

Live-Position

3D-Globus wird geladen...

Nächste Überflüge

Höhenverlauf

Altitude vs Time

uPlot chart will show altitude changes over time

Zweizeiliger Elementsatz

1 57919U 23147G 25354.16798419 -.00000323 00000-0 -88238-5 0 9996
2 57919 43.0020 38.3410 0001463 277.7019 82.3657 15.02538986124654
Epoch: 20. Dez. 2025 • Age: 16 hours

Aktueller Status

Höhe 558.2 km
Geschwindigkeit 7.58 km/s
Subsatellitenpunkt 6.94°N, 12.05°E
Startdatum 24. Sept. 2023
Alter 2.2 years
Typ internet

Technische Details

Klassifizierung Payload
Masse 730.00 kg
Trockenmasse 700.00 kg
Gesamtmasse 730.00 kg
Länge 0.30 m
Durchmesser 4.10 m
Spannweite 29.00 m
Form Box + pan
Hersteller SPXS
Bus-Typ Starlink V2M
Phasenstatus In Orbit
Besitzer/Staat SPXS/US

Große Konstellationen

Loading constellations...